Worcester, MA

4:07 AM EDT on October 21, 2019 (GMT -0400)
Worcester Regional

Weather History for KORH - August, 2019

Change the Weather History Date:

Sunday, August 18, 2019

  Actual Average Record
Temperature  
Mean Temperature 75 °F 69 °F  
Max Temperature 85 °F 77 °F 91 °F (1935)
Min Temperature 65 °F 60 °F 45 °F (1941)
Degree Days  
Heating Degree Days 0 1  
Month to date heating degree days 0 9  
Since 1 June heating degree days 52 106  
Since 1 July heating degree days 1 23  
Cooling Degree Days 10 5  
Month to date cooling degree days 104 96  
Year to date cooling degree days 460 377  
Since 1 June cooling degree days 451 355  
Growing Degree Days 24 (Base 50)    
Moisture  
Dew Point 68 °F    
Average Humidity 80    
Maximum Humidity 100    
Minimum Humidity 59    
Precipitation  
Precipitation 0.03 in 0.11 in 4.61 in (1955)
Month to date precipitation 1.97 2.29  
Year to date precipitation 33.49 29.94  
Sea Level Pressure  
Sea Level Pressure 30.02 in    
Wind  
Wind Speed 7 mph (WSW)    
Max Wind Speed 14 mph    
Max Gust Speed 19 mph    
Visibility 8 miles    
Events Fog , Rain , Thunderstorm    
T = Trace of Precipitation, MM = Missing Value Source: NWS Daily Summary

Daily Weather History Graph

Daily Weather History Graph

Search for Another Location

Airport or City:

Astronomy

Aug. 18, 2019 Rise Set
Actual Time 5:57 AM EDT 7:44 PM EDT
Civil Twilight 5:27 AM EDT 8:14 PM EDT
Nautical Twilight 4:51 AM EDT 8:50 PM EDT
Astronomical Twilight 4:11 AM EDT 9:29 PM EDT
Moon 9:34 PM EDT (8/18) 8:42 AM EDT (8/18)
Length of Visible Light 14h 46m
Length of Day
13h 46m
Waning Gibbous, 91% of the Moon is Illuminated
Aug 18
Waning Gibbous
Aug 23
Last Quarter
Aug 30
New
Sep 5
First Quarter
Sep 14
Full

Hourly Weather History & Observations

Time (EDT) Temp. Heat Index Dew Point Humidity Pressure Visibility Wind Dir Wind Speed Gust Speed Precip Events Conditions
12:43 AM 68.0 °F - 68.0 °F 100% 30.04 in 10.0 mi WNW 3.5 mph - 0.02 in   Overcast
12:54 AM 68.0 °F - 68.0 °F 100% 30.03 in 10.0 mi West 3.5 mph - 0.02 in   Overcast
1:18 AM 68.0 °F - 68.0 °F 100% 30.03 in 10.0 mi WSW 4.6 mph - N/A   Overcast
1:43 AM 68.0 °F - 68.0 °F 100% 30.03 in 10.0 mi WSW 3.5 mph - N/A   Mostly Cloudy
1:54 AM 68.0 °F - 68.0 °F 100% 30.02 in 10.0 mi West 4.6 mph - N/A   Mostly Cloudy
2:05 AM 69.1 °F - 68.0 °F 96% 30.03 in 10.0 mi West 3.5 mph - N/A   Overcast
2:33 AM 68.0 °F - 68.0 °F 100% 30.03 in 7.0 mi WNW 4.6 mph - N/A   Overcast
2:54 AM 66.9 °F - 66.9 °F 100% 30.01 in 4.0 mi Calm Calm - N/A   Mostly Cloudy
3:10 AM 66.9 °F - 66.9 °F 100% 30.02 in 10.0 mi WNW 3.5 mph - N/A   Scattered Clouds
3:48 AM 66.2 °F - 66.2 °F 100% 30.02 in 10.0 mi West 4.6 mph - N/A   Mostly Cloudy
3:54 AM 66.0 °F - 66.0 °F 100% 30.01 in 10.0 mi Calm Calm - N/A   Mostly Cloudy
4:14 AM 66.0 °F - 66.0 °F 100% 30.02 in 1.5 mi SW 5.8 mph - N/A   Overcast
4:37 AM 66.0 °F - 66.0 °F 100% 30.03 in 0.8 mi SW 8.1 mph - N/A   Mist
4:54 AM 64.9 °F - 64.9 °F 100% 30.01 in 0.5 mi WSW 6.9 mph - N/A Fog Fog
5:07 AM 64.9 °F - 64.9 °F 100% 30.02 in 0.2 mi WSW 10.4 mph - N/A Fog Fog
5:48 AM 64.4 °F - 64.4 °F 100% 30.02 in 0.5 mi West 9.2 mph - N/A Fog Fog
5:54 AM 64.9 °F - 64.9 °F 100% 30.01 in 0.8 mi West 9.2 mph - N/A   Mist
6:02 AM 64.9 °F - 64.9 °F 100% 30.02 in 2.0 mi West 9.2 mph - N/A   Overcast
6:11 AM 64.9 °F - 64.9 °F 100% 30.02 in 8.0 mi West 8.1 mph - N/A   Mostly Cloudy
6:22 AM 64.9 °F - 64.9 °F 100% 30.02 in 10.0 mi West 6.9 mph - N/A   Scattered Clouds
6:54 AM 64.9 °F - 64.9 °F 100% 30.02 in 10.0 mi WSW 8.1 mph - N/A   Clear
7:54 AM 66.9 °F - 66.0 °F 97% 30.04 in 10.0 mi West 8.1 mph - N/A   Clear
8:54 AM 72.0 °F - 66.9 °F 84% 30.04 in 10.0 mi West 10.4 mph - N/A   Clear
9:54 AM 73.0 °F - 69.1 °F 87% 30.05 in 10.0 mi WSW 11.5 mph - N/A   Clear
10:54 AM 75.9 °F - 69.1 °F 79% 30.04 in 10.0 mi West 8.1 mph - N/A   Partly Cloudy
11:54 AM 79.0 °F - 70.0 °F 74% 30.04 in 10.0 mi West 8.1 mph - N/A   Partly Cloudy
12:54 PM 81.0 °F 84.4 °F 70.0 °F 69% 30.02 in 10.0 mi West 10.4 mph - N/A   Clear
1:54 PM 82.9 °F 86.5 °F 69.1 °F 63% 30.02 in 10.0 mi WSW 9.2 mph - N/A   Clear
2:54 PM 84.0 °F 87.0 °F 68.0 °F 58% 30.01 in 10.0 mi SW 8.1 mph - N/A   Partly Cloudy
3:54 PM 84.0 °F 87.0 °F 68.0 °F 58% 30.01 in 10.0 mi SW 8.1 mph - N/A   Scattered Clouds
4:54 PM 84.0 °F 88.4 °F 70.0 °F 63% 30.00 in 10.0 mi SW 8.1 mph - N/A   Partly Cloudy
5:54 PM 77.0 °F - 71.1 °F 82% 30.00 in 5.0 mi SSW 8.1 mph - 0.03 in Rain , Thunderstorm Light Thunderstorms and Rain
6:29 PM 78.1 °F - 71.1 °F 79% 30.00 in 10.0 mi Calm Calm - 0.00 in   Clear
6:54 PM 78.1 °F - 71.1 °F 79% 29.99 in 10.0 mi SSE 5.8 mph - 0.00 in   Clear
7:54 PM 73.9 °F - 71.1 °F 91% 29.99 in 10.0 mi SW 5.8 mph - N/A   Clear
8:54 PM 73.9 °F - 72.0 °F 93% 30.00 in 10.0 mi SSW 8.1 mph - N/A   Clear
9:07 PM 73.9 °F - 72.0 °F 93% 30.01 in 10.0 mi SW 8.1 mph - N/A   Scattered Clouds
9:18 PM 73.9 °F - 73.0 °F 97% 30.02 in 10.0 mi SW 8.1 mph - N/A   Mostly Cloudy
9:54 PM 73.9 °F - 73.0 °F 97% 30.00 in 8.0 mi SW 11.5 mph - N/A   Mostly Cloudy
10:54 PM 73.9 °F - 73.0 °F 97% 30.00 in 10.0 mi SW 11.5 mph - N/A   Overcast
11:16 PM 73.9 °F - 73.0 °F 97% 30.00 in 10.0 mi SW 8.1 mph - N/A   Scattered Clouds
11:54 PM 73.0 °F - 72.0 °F 96% 29.96 in 9.0 mi Calm Calm - N/A   Clear